Location: Marcé
(47.5801°N, 0.3280°W)
Time: 11:32:51
(UTC+01:00)

deb Explorer IX - Pass Details

Date: 09 December 2021
Orbit: 544 x 1082 km, 38.8° (Epoch: 17 January)

Event Time Altitude Azimuth Distance (km) Brightness Sun altitude
Rises 10:47:04 0° 247° (WSW) 3,249 ? 14.0°
Reaches altitude 10° 10:49:57 10° 237° (WSW) 2,221 ? 14.3°
Maximum altitude 10:54:18 28° 179° (S) 1,224 ? 14.6°
Drops below altitude 10° 10:58:12 10° 119° (ESE) 1,964 ? 14.9°
Sets 11:00:36 0° 108° (ESE) 2,806 ? 15.1°
